Time,TemperatureF,DewpointF,PressureIn,WindDirection,WindDirectionDegrees,WindSpeedMPH,WindSpeedGustMPH,Humidity,HourlyPrecipIn,Conditions,Clouds,dailyrainin,SoftwareType,DateUTC
2013-02-12 00:00:00,57.3,57.0,29.97,NW,321,1.0,2.0,99,0.00,,---,0.48,VWS V14.01,2013-02-12 06:00:00,
2013-02-12 00:05:00,57.3,57.0,29.97,West,271,0.0,1.0,99,0.00,,---,0.00,VWS V14.01,2013-02-12 06:05:00,
2013-02-12 00:10:00,57.3,57.0,29.97,East,94,0.0,1.0,99,0.00,,---,0.00,VWS V14.01,2013-02-12 06:10:00,
2013-02-12 00:15:00,57.3,57.0,29.97,ENE,68,2.0,2.0,99,0.00,,---,0.00,VWS V14.01,2013-02-12 06:15:00,
2013-02-12 00:20:00,57.3,57.0,29.96,NW,311,0.0,2.0,99,0.00,,---,0.00,VWS V14.01,2013-02-12 06:20:00,
2013-02-12 00:25:00,57.3,57.0,29.96,NW,308,2.0,2.0,99,0.00,,---,0.00,VWS V14.01,2013-02-12 06:25:00,
2013-02-12 00:30:00,57.3,57.0,29.95,NNW,348,0.0,2.0,99,0.00,,---,0.00,VWS V14.01,2013-02-12 06:30:00,
2013-02-12 00:34:00,57.3,57.0,29.95,NNW,338,0.0,0.0,99,0.00,,---,0.00,VWS V14.01,2013-02-12 06:34:00,
2013-02-12 00:39:00,57.3,57.0,29.95,East,85,0.0,1.0,99,0.00,,---,0.00,VWS V14.01,2013-02-12 06:39:00,
2013-02-12 00:44:00,57.3,57.0,29.95,East,86,0.0,1.0,99,0.00,,---,0.00,VWS V14.01,2013-02-12 06:44:00,
2013-02-12 00:49:00,57.3,57.0,29.96,WNW,291,0.0,2.0,99,0.00,,---,0.00,VWS V14.01,2013-02-12 06:49:00,
2013-02-12 00:54:00,57.2,56.9,29.96,NW,309,0.0,3.0,99,0.00,,---,0.00,VWS V14.01,2013-02-12 06:54:00,
2013-02-12 00:59:00,57.3,57.0,29.96,NW,319,1.0,3.0,99,0.00,,---,0.00,VWS V14.01,2013-02-12 06:59:00,
2013-02-12 01:04:00,57.3,57.0,29.97,NW,323,0.0,1.0,99,0.00,,---,0.00,VWS V14.01,2013-02-12 07:04:00,
2013-02-12 01:09:00,57.3,57.0,29.97,NNW,329,0.0,2.0,99,0.00,,---,0.00,VWS V14.01,2013-02-12 07:09:00,
2013-02-12 01:14:00,57.3,57.0,29.97,NNW,327,0.0,2.0,99,0.00,,---,0.00,VWS V14.01,2013-02-12 07:14:00,
2013-02-12 01:19:00,57.3,57.0,29.97,WNW,302,0.0,2.0,99,0.00,,---,0.00,VWS V14.01,2013-02-12 07:19:00,
2013-02-12 01:24:00,57.2,56.9,29.97,NE,55,0.0,2.0,99,0.00,,---,0.00,VWS V14.01,2013-02-12 07:24:00,
2013-02-12 01:29:00,57.3,57.0,29.97,West,267,0.0,2.0,99,0.00,,---,0.00,VWS V14.01,2013-02-12 07:29:00,
2013-02-12 01:34:00,57.2,56.9,29.97,NNW,334,0.0,2.0,99,0.00,,---,0.00,VWS V14.01,2013-02-12 07:34:00,
2013-02-12 01:39:00,57.2,56.9,29.98,WNW,298,0.0,2.0,99,0.00,,---,0.00,VWS V14.01,2013-02-12 07:39:00,
2013-02-12 01:44:00,57.2,56.9,29.97,NNW,332,0.0,2.0,99,0.00,,---,0.00,VWS V14.01,2013-02-12 07:44:00,
2013-02-12 01:49:00,57.2,56.9,29.96,SW,226,0.0,2.0,99,0.00,,---,0.00,VWS V14.01,2013-02-12 07:49:00,
2013-02-12 01:54:00,57.1,56.8,29.96,SW,229,0.0,4.0,99,0.00,,---,0.00,VWS V14.01,2013-02-12 07:54:00,
2013-02-12 01:59:00,57.1,56.8,29.96,NNW,335,0.0,4.0,99,0.00,,---,0.00,VWS V14.01,2013-02-12 07:59:00,
2013-02-12 02:04:00,57.0,56.7,29.96,WNW,293,0.0,1.0,99,0.00,,---,0.00,VWS V14.01,2013-02-12 08:04:00,
2013-02-12 02:09:00,57.0,56.7,29.96,WSW,254,0.0,2.0,99,0.00,,---,0.00,VWS V14.01,2013-02-12 08:09:00,
2013-02-12 02:14:00,57.0,56.7,29.96,North,1,0.0,2.0,99,0.00,,---,0.00,VWS V14.01,2013-02-12 08:14:00,
2013-02-12 02:19:00,57.0,56.7,29.96,WSW,257,0.0,2.0,99,0.00,,---,0.00,VWS V14.01,2013-02-12 08:19:00,
2013-02-12 02:24:00,57.0,56.7,29.95,West,260,0.0,3.0,99,0.00,,---,0.00,VWS V14.01,2013-02-12 08:24:00,
2013-02-12 02:29:00,56.9,56.6,29.95,NNW,345,0.0,4.0,99,0.00,,---,0.00,VWS V14.01,2013-02-12 08:29:00,
2013-02-12 02:34:00,56.9,56.6,29.95,North,354,1.0,1.0,99,0.00,,---,0.00,VWS V14.01,2013-02-12 08:34:00,
2013-02-12 02:39:00,56.9,56.6,29.95,NNW,348,0.0,2.0,99,0.00,,---,0.00,VWS V14.01,2013-02-12 08:39:00,
2013-02-12 02:44:00,56.9,56.6,29.95,NW,311,1.0,2.0,99,0.00,,---,0.00,VWS V14.01,2013-02-12 08:44:00,
2013-02-12 02:49:00,56.9,56.6,29.95,WSW,249,0.0,2.0,99,0.00,,---,0.00,VWS V14.01,2013-02-12 08:49:00,
2013-02-12 02:54:00,56.9,56.6,29.95,NNW,332,0.0,5.0,99,0.00,,---,0.00,VWS V14.01,2013-02-12 08:54:00,
2013-02-12 02:59:00,56.8,56.5,29.95,WSW,238,0.0,5.0,99,0.00,,---,0.00,VWS V14.01,2013-02-12 08:59:00,
2013-02-12 03:04:00,56.8,56.5,29.95,West,276,0.0,0.0,99,0.00,,---,0.00,VWS V14.01,2013-02-12 09:04:00,
2013-02-12 03:09:00,56.8,56.5,29.95,NNW,333,0.0,2.0,99,0.00,,---,0.00,VWS V14.01,2013-02-12 09:09:00,
2013-02-12 03:14:00,56.8,56.5,29.95,SW,236,0.0,2.0,99,0.00,,---,0.00,VWS V14.01,2013-02-12 09:14:00,
2013-02-12 03:19:00,56.8,56.5,29.95,WNW,283,0.0,2.0,99,0.00,,---,0.00,VWS V14.01,2013-02-12 09:19:00,
2013-02-12 03:24:00,56.7,56.4,29.95,WSW,238,0.0,2.0,99,0.00,,---,0.00,VWS V14.01,2013-02-12 09:24:00,
2013-02-12 03:29:00,56.7,56.4,29.93,ESE,111,0.0,3.0,99,0.00,,---,0.00,VWS V14.01,2013-02-12 09:29:00,
2013-02-12 03:34:00,56.7,56.4,29.93,SW,236,0.0,1.0,99,0.00,,---,0.00,VWS V14.01,2013-02-12 09:34:00,
2013-02-12 03:39:00,56.7,56.4,29.93,East,87,0.0,4.0,99,0.00,,---,0.00,VWS V14.01,2013-02-12 09:39:00,
2013-02-12 03:44:00,56.7,56.4,29.93,ESE,118,0.0,4.0,99,0.00,,---,0.00,VWS V14.01,2013-02-12 09:44:00,
2013-02-12 03:49:00,56.6,56.3,29.92,NW,319,0.0,4.0,99,0.00,,---,0.00,VWS V14.01,2013-02-12 09:49:00,
2013-02-12 03:54:00,56.6,56.3,29.92,SW,231,0.0,4.0,99,0.00,,---,0.00,VWS V14.01,2013-02-12 09:54:00,
2013-02-12 03:59:00,56.6,56.3,29.92,West,263,1.0,4.0,99,0.00,,---,0.00,VWS V14.01,2013-02-12 09:59:00,
2013-02-12 04:04:00,56.6,56.3,29.92,South,183,0.0,0.0,99,0.00,,---,0.00,VWS V14.01,2013-02-12 10:04:00,
2013-02-12 04:09:00,56.6,56.3,29.92,West,270,0.0,2.0,99,0.00,,---,0.00,VWS V14.01,2013-02-12 10:09:00,
2013-02-12 04:14:00,56.5,56.2,29.92,West,269,0.0,2.0,99,0.00,,---,0.00,VWS V14.01,2013-02-12 10:14:00,
2013-02-12 04:19:00,56.5,56.2,29.92,West,264,0.0,2.0,99,0.00,,---,0.00,VWS V14.01,2013-02-12 10:19:00,
2013-02-12 04:24:00,56.5,56.2,29.92,WSW,246,0.0,2.0,99,0.00,,---,0.00,VWS V14.01,2013-02-12 10:24:00,
2013-02-12 04:29:00,56.6,56.3,29.92,SSW,210,0.0,2.0,99,0.00,,---,0.00,VWS V14.01,2013-02-12 10:29:00,
2013-02-12 04:34:00,56.6,56.3,29.92,West,262,0.0,0.0,99,0.00,,---,0.00,VWS V14.01,2013-02-12 10:34:00,
2013-02-12 04:39:00,56.6,56.3,29.92,West,262,0.0,0.0,99,0.00,,---,0.00,VWS V14.01,2013-02-12 10:39:00,
2013-02-12 04:44:00,56.7,56.4,29.92,WSW,240,0.0,1.0,99,0.00,,---,0.00,VWS V14.01,2013-02-12 10:44:00,
2013-02-12 04:49:00,56.7,56.4,29.92,WSW,240,0.0,1.0,99,0.00,,---,0.00,VWS V14.01,2013-02-12 10:49:00,
2013-02-12 04:54:00,56.7,56.4,29.92,ENE,72,0.0,2.0,99,0.00,,---,0.00,VWS V14.01,2013-02-12 10:54:00,
2013-02-12 04:59:00,56.8,56.5,29.92,ENE,67,0.0,2.0,99,0.00,,---,0.00,VWS V14.01,2013-02-12 10:59:00,
2013-02-12 05:04:00,56.8,56.5,29.92,SW,232,0.0,0.0,99,0.00,,---,0.00,VWS V14.01,2013-02-12 11:04:00,
2013-02-12 05:09:00,56.8,56.5,29.92,NW,311,0.0,3.0,99,0.00,,---,0.00,VWS V14.01,2013-02-12 11:09:00,
2013-02-12 05:14:00,56.8,56.5,29.92,NW,311,0.0,3.0,99,0.00,,---,0.00,VWS V14.01,2013-02-12 11:14:00,
2013-02-12 05:19:00,56.8,56.5,29.92,NNE,12,0.0,4.0,99,0.00,,---,0.00,VWS V14.01,2013-02-12 11:19:00,
2013-02-12 05:24:00,56.8,56.5,29.92,WNW,303,0.0,4.0,99,0.00,,---,0.00,VWS V14.01,2013-02-12 11:24:00,
2013-02-12 05:29:00,56.8,56.5,29.91,West,266,0.0,4.0,99,0.00,,---,0.00,VWS V14.01,2013-02-12 11:29:00,
2013-02-12 05:34:00,56.8,56.5,29.92,WSW,249,0.0,0.0,99,0.00,,---,0.00,VWS V14.01,2013-02-12 11:34:00,
2013-02-12 05:39:00,56.7,56.4,29.91,WSW,249,0.0,0.0,99,0.00,,---,0.00,VWS V14.01,2013-02-12 11:39:00,
2013-02-12 05:44:00,56.7,56.4,29.91,WSW,255,0.0,1.0,99,0.00,,---,0.00,VWS V14.01,2013-02-12 11:44:00,
2013-02-12 05:49:00,56.7,56.4,29.90,WSW,255,0.0,1.0,99,0.00,,---,0.00,VWS V14.01,2013-02-12 11:49:00,
2013-02-12 05:54:00,56.6,56.3,29.90,WSW,255,0.0,1.0,99,0.00,,---,0.00,VWS V14.01,2013-02-12 11:54:00,
2013-02-12 05:59:00,56.6,56.3,29.90,WNW,300,0.0,3.0,99,0.00,,---,0.00,VWS V14.01,2013-02-12 11:59:00,
2013-02-12 06:04:00,56.5,55.9,29.90,SW,236,0.0,0.0,98,0.00,,---,0.00,VWS V14.01,2013-02-12 12:04:00,
2013-02-12 06:09:00,56.5,55.9,29.90,NNW,345,0.0,3.0,98,0.00,,---,0.00,VWS V14.01,2013-02-12 12:09:00,
2013-02-12 06:14:00,56.5,55.9,29.90,ESE,109,0.0,3.0,98,0.00,,---,0.00,VWS V14.01,2013-02-12 12:14:00,
2013-02-12 06:19:00,56.4,55.8,29.90,WSW,249,0.0,3.0,98,0.00,,---,0.00,VWS V14.01,2013-02-12 12:19:00,
2013-02-12 06:24:00,56.5,56.2,29.90,WSW,245,0.0,3.0,99,0.00,,---,0.00,VWS V14.01,2013-02-12 12:24:00,
2013-02-12 06:29:00,56.5,56.2,29.90,ENE,58,0.0,3.0,99,0.00,,---,0.00,VWS V14.01,2013-02-12 12:29:00,
2013-02-12 06:34:00,56.5,56.2,29.90,SSW,212,0.0,0.0,99,0.00,,---,0.00,VWS V14.01,2013-02-12 12:34:00,
2013-02-12 06:39:00,56.5,56.2,29.90,NW,313,0.0,1.0,99,0.00,,---,0.00,VWS V14.01,2013-02-12 12:39:00,
2013-02-12 06:44:00,56.4,56.1,29.90,WSW,240,0.0,2.0,99,0.00,,---,0.00,VWS V14.01,2013-02-12 12:44:00,
2013-02-12 06:49:00,56.4,55.8,29.90,West,260,0.0,2.0,98,0.00,,---,0.00,VWS V14.01,2013-02-12 12:49:00,
2013-02-12 06:54:00,56.5,55.9,29.90,SE,133,0.0,4.0,98,0.00,,---,0.00,VWS V14.01,2013-02-12 12:54:00,
2013-02-12 06:59:00,56.5,56.2,29.89,SSE,153,0.0,4.0,99,0.00,,---,0.00,VWS V14.01,2013-02-12 12:59:00,
2013-02-12 07:04:00,56.5,56.2,29.89,West,266,0.0,0.0,99,0.00,,---,0.00,VWS V14.01,2013-02-12 13:04:00,
2013-02-12 07:09:00,56.5,56.2,29.89,West,269,0.0,1.0,99,0.00,,---,0.00,VWS V14.01,2013-02-12 13:09:00,
2013-02-12 07:14:00,56.5,56.2,29.89,WSW,238,0.0,1.0,99,0.00,,---,0.00,VWS V14.01,2013-02-12 13:14:00,
2013-02-12 07:19:00,56.5,56.2,29.89,SSE,156,0.0,2.0,99,0.00,,---,0.00,VWS V14.01,2013-02-12 13:19:00,
2013-02-12 07:24:00,56.5,56.2,29.89,WSW,240,0.0,2.0,99,0.00,,---,0.00,VWS V14.01,2013-02-12 13:24:00,
2013-02-12 07:29:00,56.6,56.3,29.88,ESE,112,0.0,2.0,99,0.00,,---,0.00,VWS V14.01,2013-02-12 13:29:00,
2013-02-12 07:34:00,56.6,56.3,29.88,West,263,0.0,1.0,99,0.00,,---,0.00,VWS V14.01,2013-02-12 13:34:00,
2013-02-12 07:39:00,56.6,56.3,29.87,West,262,0.0,1.0,99,0.00,,---,0.00,VWS V14.01,2013-02-12 13:39:00,
2013-02-12 07:44:00,56.7,56.4,29.88,East,81,0.0,1.0,99,0.00,,---,0.00,VWS V14.01,2013-02-12 13:44:00,
2013-02-12 07:49:00,56.8,56.5,29.88,SSW,193,0.0,1.0,99,0.00,,---,0.00,VWS V14.01,2013-02-12 13:49:00,
2013-02-12 07:54:00,56.8,56.5,29.88,East,99,0.0,1.0,99,0.00,,---,0.00,VWS V14.01,2013-02-12 13:54:00,
2013-02-12 07:59:00,56.9,56.6,29.88,SW,235,0.0,2.0,99,0.00,,---,0.00,VWS V14.01,2013-02-12 13:59:00,
2013-02-12 08:04:00,56.9,56.6,29.88,SSE,165,0.0,0.0,99,0.00,,---,0.00,VWS V14.01,2013-02-12 14:04:00,
2013-02-12 08:09:00,56.9,56.6,29.88,West,280,1.0,1.0,99,0.00,,---,0.00,VWS V14.01,2013-02-12 14:09:00,
2013-02-12 08:13:00,56.9,56.6,29.88,WSW,239,0.0,1.0,99,0.00,,---,0.00,VWS V14.01,2013-02-12 14:13:00,
2013-02-12 08:18:00,56.9,56.6,29.89,SSE,156,0.0,3.0,99,0.00,,---,0.00,VWS V14.01,2013-02-12 14:18:00,
2013-02-12 08:23:00,57.0,56.7,29.89,ESE,114,0.0,3.0,99,0.00,,---,0.00,VWS V14.01,2013-02-12 14:23:00,
2013-02-12 08:28:00,57.0,56.7,29.89,WNW,299,0.0,3.0,99,0.00,,---,0.00,VWS V14.01,2013-02-12 14:28:00,
2013-02-12 08:33:00,57.1,56.8,29.90,NW,321,0.0,0.0,99,0.00,,---,0.00,VWS V14.01,2013-02-12 14:33:00,
2013-02-12 08:38:00,57.2,56.9,29.89,East,98,0.0,1.0,99,0.00,,---,0.00,VWS V14.01,2013-02-12 14:38:00,
2013-02-12 08:43:00,57.4,57.1,29.89,South,174,0.0,1.0,99,0.00,,---,0.00,VWS V14.01,2013-02-12 14:43:00,
2013-02-12 08:48:00,57.4,57.1,29.88,SSE,163,0.0,3.0,99,0.00,,---,0.00,VWS V14.01,2013-02-12 14:48:00,
2013-02-12 08:53:00,57.4,57.1,29.89,WNW,285,0.0,3.0,99,0.00,,---,0.00,VWS V14.01,2013-02-12 14:53:00,
2013-02-12 08:58:00,57.6,57.3,29.89,NW,307,0.0,3.0,99,0.00,,---,0.00,VWS V14.01,2013-02-12 14:58:00,
2013-02-12 09:03:00,57.6,57.0,29.89,WNW,285,0.0,0.0,98,0.00,,---,0.00,VWS V14.01,2013-02-12 15:03:00,
2013-02-12 09:08:00,57.7,57.1,29.90,WSW,243,0.0,1.0,98,0.00,,---,0.00,VWS V14.01,2013-02-12 15:08:00,
2013-02-12 09:13:00,57.8,57.2,29.89,WSW,244,0.0,1.0,98,0.00,,---,0.00,VWS V14.01,2013-02-12 15:13:00,
2013-02-12 09:18:00,57.9,57.3,29.89,SW,235,0.0,1.0,98,0.00,,---,0.00,VWS V14.01,2013-02-12 15:18:00,
2013-02-12 09:23:00,57.9,57.3,29.89,NE,52,0.0,2.0,98,0.00,,---,0.00,VWS V14.01,2013-02-12 15:23:00,
2013-02-12 09:28:00,58.0,57.4,29.89,ESE,105,1.0,2.0,98,0.00,,---,0.00,VWS V14.01,2013-02-12 15:28:00,
2013-02-12 09:33:00,58.0,57.4,29.89,WNW,294,0.0,2.0,98,0.00,,---,0.00,VWS V14.01,2013-02-12 15:33:00,
2013-02-12 09:38:00,58.1,57.5,29.88,SSW,210,0.0,1.0,98,0.00,,---,0.00,VWS V14.01,2013-02-12 15:38:00,
2013-02-12 09:43:00,58.1,57.5,29.88,SW,228,0.0,1.0,98,0.00,,---,0.00,VWS V14.01,2013-02-12 15:43:00,
2013-02-12 09:48:00,58.2,57.6,29.88,SW,228,0.0,1.0,98,0.00,,---,0.00,VWS V14.01,2013-02-12 15:48:00,
2013-02-12 09:53:00,58.2,57.6,29.88,West,269,0.0,1.0,98,0.00,,---,0.00,VWS V14.01,2013-02-12 15:53:00,
2013-02-12 09:58:00,58.3,57.7,29.87,West,271,0.0,1.0,98,0.00,,---,0.00,VWS V14.01,2013-02-12 15:58:00,
2013-02-12 10:03:00,58.3,57.7,29.88,SE,136,0.0,1.0,98,0.00,,---,0.00,VWS V14.01,2013-02-12 16:03:00,
2013-02-12 10:08:00,58.2,57.6,29.88,North,355,0.0,1.0,98,0.00,,---,0.00,VWS V14.01,2013-02-12 16:08:00,
2013-02-12 10:13:00,58.2,57.6,29.87,WSW,249,0.0,1.0,98,0.01,,---,0.01,VWS V14.01,2013-02-12 16:13:00,
2013-02-12 10:18:00,58.3,57.7,29.87,SW,226,0.0,1.0,98,0.01,,---,0.01,VWS V14.01,2013-02-12 16:18:00,
2013-02-12 10:23:00,58.5,57.9,29.87,WSW,246,1.0,1.0,98,0.01,,---,0.01,VWS V14.01,2013-02-12 16:23:00,
2013-02-12 10:28:00,58.5,57.9,29.86,WSW,252,0.0,2.0,98,0.01,,---,0.01,VWS V14.01,2013-02-12 16:28:00,
2013-02-12 10:33:00,58.6,58.0,29.86,WNW,300,0.0,3.0,98,0.01,,---,0.01,VWS V14.01,2013-02-12 16:33:00,
2013-02-12 10:38:00,58.7,58.4,29.86,East,84,0.0,1.0,99,0.01,,---,0.01,VWS V14.01,2013-02-12 16:38:00,
2013-02-12 10:43:00,58.7,58.4,29.86,ESE,117,0.0,1.0,99,0.01,,---,0.01,VWS V14.01,2013-02-12 16:43:00,
2013-02-12 10:48:00,58.8,58.5,29.86,SSE,148,0.0,3.0,99,0.01,,---,0.01,VWS V14.01,2013-02-12 16:48:00,
2013-02-12 10:53:00,58.9,58.6,29.86,SSE,148,0.0,3.0,99,0.01,,---,0.01,VWS V14.01,2013-02-12 16:53:00,
2013-02-12 10:58:00,59.1,58.8,29.85,SE,129,0.0,3.0,99,0.01,,---,0.01,VWS V14.01,2013-02-12 16:58:00,
2013-02-12 11:03:00,59.1,58.8,29.85,SE,130,0.0,3.0,99,0.01,,---,0.01,VWS V14.01,2013-02-12 17:03:00,
2013-02-12 11:08:00,59.0,58.7,29.84,SSW,207,0.0,1.0,99,0.02,,---,0.02,VWS V14.01,2013-02-12 17:08:00,
2013-02-12 11:13:00,59.0,58.7,29.84,East,100,0.0,2.0,99,0.03,,---,0.03,VWS V14.01,2013-02-12 17:13:00,
2013-02-12 11:18:00,59.0,58.7,29.85,WSW,242,0.0,2.0,99,0.03,,---,0.03,VWS V14.01,2013-02-12 17:18:00,
2013-02-12 11:23:00,59.1,58.8,29.85,WSW,242,0.0,2.0,99,0.03,,---,0.03,VWS V14.01,2013-02-12 17:23:00,
2013-02-12 11:28:00,59.2,58.9,29.84,WSW,240,0.0,2.0,99,0.03,,---,0.03,VWS V14.01,2013-02-12 17:28:00,
2013-02-12 11:33:00,59.5,59.2,29.83,WSW,240,0.0,2.0,99,0.03,,---,0.03,VWS V14.01,2013-02-12 17:33:00,
2013-02-12 11:38:00,59.6,59.3,29.83,WSW,239,0.0,0.0,99,0.02,,---,0.03,VWS V14.01,2013-02-12 17:38:00,
2013-02-12 11:43:00,59.9,59.6,29.83,SSE,151,0.0,2.0,99,0.02,,---,0.03,VWS V14.01,2013-02-12 17:43:00,
2013-02-12 11:48:00,60.0,59.7,29.82,SSE,150,0.0,2.0,99,0.02,,---,0.03,VWS V14.01,2013-02-12 17:48:00,
2013-02-12 11:53:00,60.1,59.8,29.82,SSE,152,0.0,2.0,99,0.02,,---,0.03,VWS V14.01,2013-02-12 17:53:00,
2013-02-12 11:58:00,60.2,59.9,29.81,SSE,150,0.0,2.0,99,0.02,,---,0.03,VWS V14.01,2013-02-12 17:58:00,
2013-02-12 12:03:00,60.3,60.0,29.80,SSE,150,0.0,2.0,99,0.02,,---,0.03,VWS V14.01,2013-02-12 18:03:00,
2013-02-12 12:08:00,60.5,60.2,29.80,SSE,150,0.0,0.0,99,0.02,,---,0.03,VWS V14.01,2013-02-12 18:08:00,
2013-02-12 12:13:00,60.4,60.1,29.80,ESE,108,0.0,2.0,99,0.02,,---,0.03,VWS V14.01,2013-02-12 18:13:00,
2013-02-12 12:18:00,60.5,60.2,29.79,West,269,0.0,2.0,99,0.02,,---,0.03,VWS V14.01,2013-02-12 18:18:00,
2013-02-12 12:23:00,60.5,60.2,29.79,ESE,120,0.0,2.0,99,0.02,,---,0.03,VWS V14.01,2013-02-12 18:23:00,
2013-02-12 12:28:00,60.7,60.4,29.79,SE,137,0.0,2.0,99,0.02,,---,0.03,VWS V14.01,2013-02-12 18:28:00,
2013-02-12 12:33:00,60.9,60.6,29.78,SE,136,0.0,2.0,99,0.02,,---,0.03,VWS V14.01,2013-02-12 18:33:00,
2013-02-12 12:38:00,60.9,60.6,29.78,East,81,0.0,1.0,99,0.00,,---,0.03,VWS V14.01,2013-02-12 18:38:00,
2013-02-12 12:43:00,60.9,60.6,29.77,East,81,0.0,1.0,99,0.00,,---,0.03,VWS V14.01,2013-02-12 18:43:00,
2013-02-12 12:48:00,60.9,60.6,29.77,East,81,0.0,1.0,99,0.00,,---,0.03,VWS V14.01,2013-02-12 18:48:00,
2013-02-12 12:53:00,60.9,60.6,29.76,SW,224,0.0,2.0,99,0.00,,---,0.03,VWS V14.01,2013-02-12 18:53:00,
2013-02-12 12:58:00,61.1,60.8,29.75,SE,129,0.0,2.0,99,0.00,,---,0.03,VWS V14.01,2013-02-12 18:58:00,
2013-02-12 13:03:00,61.1,60.8,29.75,WSW,255,0.0,2.0,99,0.00,,---,0.03,VWS V14.01,2013-02-12 19:03:00,
2013-02-12 13:08:00,61.1,60.8,29.75,West,276,0.0,2.0,99,0.00,,---,0.03,VWS V14.01,2013-02-12 19:08:00,
2013-02-12 13:13:00,61.2,60.9,29.74,West,277,0.0,2.0,99,0.01,,---,0.04,VWS V14.01,2013-02-12 19:13:00,
2013-02-12 13:18:00,61.2,60.9,29.75,West,276,0.0,2.0,99,0.02,,---,0.05,VWS V14.01,2013-02-12 19:18:00,
2013-02-12 13:23:00,61.3,61.0,29.74,West,276,0.0,2.0,99,0.03,,---,0.06,VWS V14.01,2013-02-12 19:23:00,
2013-02-12 13:28:00,61.5,61.2,29.74,West,276,0.0,2.0,99,0.03,,---,0.06,VWS V14.01,2013-02-12 19:28:00,
2013-02-12 13:33:00,61.5,61.2,29.74,West,276,0.0,2.0,99,0.04,,---,0.07,VWS V14.01,2013-02-12 19:33:00,
2013-02-12 13:38:00,61.5,61.2,29.73,West,276,0.0,0.0,99,0.04,,---,0.07,VWS V14.01,2013-02-12 19:38:00,
2013-02-12 13:43:00,61.6,61.3,29.73,West,276,0.0,0.0,99,0.04,,---,0.07,VWS V14.01,2013-02-12 19:43:00,
2013-02-12 13:48:00,61.6,61.3,29.73,SW,226,0.0,1.0,99,0.04,,---,0.07,VWS V14.01,2013-02-12 19:48:00,
2013-02-12 13:53:00,61.6,61.3,29.72,SW,225,0.0,1.0,99,0.05,,---,0.08,VWS V14.01,2013-02-12 19:53:00,
2013-02-12 13:58:00,61.9,61.6,29.72,WSW,255,0.0,1.0,99,0.05,,---,0.08,VWS V14.01,2013-02-12 19:58:00,
2013-02-12 14:03:00,61.7,61.4,29.72,SE,132,0.0,2.0,99,0.05,,---,0.08,VWS V14.01,2013-02-12 20:03:00,
2013-02-12 14:08:00,61.8,61.5,29.72,SE,132,0.0,0.0,99,0.05,,---,0.08,VWS V14.01,2013-02-12 20:08:00,
2013-02-12 15:30:00,65.5,65.5,29.68,SSE,167,1.0,2.0,100,0.03,,---,0.11,VWS V14.01,2013-02-12 21:30:00,
2013-02-12 16:00:00,68.8,68.8,29.68,SE,142,2.0,6.0,100,0.01,,---,0.11,VWS V14.01,2013-02-12 22:00:00,
2013-02-12 16:05:00,69.0,69.0,29.68,SW,228,0.0,4.0,100,0.00,,---,0.11,VWS V14.01,2013-02-12 22:05:00,
2013-02-12 16:10:00,69.0,69.0,29.68,WSW,249,6.0,7.0,100,0.00,,---,0.11,VWS V14.01,2013-02-12 22:10:00,
2013-02-12 16:15:00,68.9,68.9,29.68,South,191,3.0,8.0,100,0.00,,---,0.11,VWS V14.01,2013-02-12 22:15:00,
2013-02-12 16:20:00,68.9,68.9,29.68,South,179,3.0,8.0,100,0.00,,---,0.11,VWS V14.01,2013-02-12 22:20:00,
2013-02-12 16:25:00,68.8,68.8,29.68,SSW,195,1.0,8.0,100,0.00,,---,0.11,VWS V14.01,2013-02-12 22:25:00,
2013-02-12 16:30:00,68.8,68.8,29.67,South,187,3.0,8.0,100,0.00,,---,0.11,VWS V14.01,2013-02-12 22:30:00,
2013-02-12 16:35:00,68.8,68.8,29.67,SSW,194,2.0,4.0,100,0.00,,---,0.11,VWS V14.01,2013-02-12 22:35:00,
2013-02-12 16:40:00,68.8,68.8,29.67,SSW,207,1.0,5.0,100,0.00,,---,0.11,VWS V14.01,2013-02-12 22:40:00,
2013-02-12 16:45:00,68.8,68.8,29.68,SSW,195,2.0,6.0,100,0.00,,---,0.11,VWS V14.01,2013-02-12 22:45:00,
2013-02-12 16:50:00,68.8,68.8,29.67,SSW,202,2.0,6.0,100,0.00,,---,0.11,VWS V14.01,2013-02-12 22:50:00,
2013-02-12 16:55:00,68.8,68.8,29.67,SSW,201,2.0,6.0,100,0.00,,---,0.11,VWS V14.01,2013-02-12 22:55:00,
2013-02-12 17:00:00,68.9,68.9,29.67,SSW,195,2.0,6.0,100,0.00,,---,0.11,VWS V14.01,2013-02-12 23:00:00,
2013-02-12 17:05:00,68.9,68.9,29.67,SSW,193,1.0,4.0,100,0.00,,---,0.11,VWS V14.01,2013-02-12 23:05:00,
2013-02-12 17:10:00,69.0,69.0,29.67,SW,219,3.0,5.0,100,0.00,,---,0.11,VWS V14.01,2013-02-12 23:10:00,
2013-02-12 17:14:00,69.0,69.0,29.67,SSW,207,1.0,6.0,100,0.00,,---,0.11,VWS V14.01,2013-02-12 23:14:00,
2013-02-12 17:19:00,69.1,69.1,29.67,South,184,2.0,6.0,100,0.00,,---,0.11,VWS V14.01,2013-02-12 23:19:00,
2013-02-12 17:24:00,69.1,69.1,29.67,West,260,1.0,6.0,100,0.00,,---,0.11,VWS V14.01,2013-02-12 23:24:00,
2013-02-12 17:29:00,69.0,69.0,29.67,SSW,207,3.0,6.0,100,0.00,,---,0.11,VWS V14.01,2013-02-12 23:29:00,
2013-02-12 17:34:00,69.0,69.0,29.67,SW,214,1.0,3.0,100,0.00,,---,0.11,VWS V14.01,2013-02-12 23:34:00,
2013-02-12 17:39:00,69.0,69.0,29.67,SSW,198,2.0,3.0,100,0.00,,---,0.11,VWS V14.01,2013-02-12 23:39:00,
2013-02-12 17:44:00,69.0,69.0,29.67,SSE,165,2.0,4.0,100,0.00,,---,0.11,VWS V14.01,2013-02-12 23:44:00,
2013-02-12 17:49:00,69.1,69.1,29.67,SSE,162,3.0,4.0,100,0.00,,---,0.11,VWS V14.01,2013-02-12 23:49:00,
2013-02-12 17:54:00,69.1,69.1,29.68,SW,229,2.0,4.0,100,0.00,,---,0.11,VWS V14.01,2013-02-12 23:54:00,
2013-02-12 17:59:00,69.2,69.2,29.68,South,176,5.0,5.0,100,0.00,,---,0.11,VWS V14.01,2013-02-12 23:59:00,
2013-02-12 18:04:00,69.3,69.3,29.67,SSE,162,1.0,4.0,100,0.00,,---,0.11,VWS V14.01,2013-02-13 00:04:00,
2013-02-12 18:09:00,69.2,69.2,29.67,SSW,195,1.0,4.0,100,0.00,,---,0.11,VWS V14.01,2013-02-13 00:09:00,
2013-02-12 18:14:00,69.2,69.2,29.68,SSW,208,0.0,4.0,100,0.00,,---,0.11,VWS V14.01,2013-02-13 00:14:00,
2013-02-12 18:19:00,69.2,68.9,29.67,SSW,207,2.0,5.0,99,0.00,,---,0.11,VWS V14.01,2013-02-13 00:19:00,
2013-02-12 18:24:00,69.3,69.0,29.68,SSW,208,1.0,5.0,99,0.00,,---,0.11,VWS V14.01,2013-02-13 00:24:00,
2013-02-12 18:29:00,69.3,69.0,29.68,SW,225,1.0,5.0,99,0.00,,---,0.11,VWS V14.01,2013-02-13 00:29:00,
2013-02-12 18:34:00,69.2,68.9,29.68,SSW,194,2.0,3.0,99,0.00,,---,0.11,VWS V14.01,2013-02-13 00:34:00,
2013-02-12 18:39:00,69.2,68.9,29.68,SSW,204,2.0,4.0,99,0.00,,---,0.11,VWS V14.01,2013-02-13 00:39:00,
2013-02-12 18:44:00,69.3,69.0,29.68,SW,226,1.0,4.0,99,0.00,,---,0.11,VWS V14.01,2013-02-13 00:44:00,
2013-02-12 18:49:00,69.3,69.0,29.68,SW,222,1.0,4.0,99,0.00,,---,0.11,VWS V14.01,2013-02-13 00:49:00,
2013-02-12 18:54:00,69.3,69.0,29.68,SW,231,0.0,4.0,99,0.00,,---,0.11,VWS V14.01,2013-02-13 00:54:00,
2013-02-12 18:59:00,69.4,69.1,29.68,SW,224,0.0,4.0,99,0.00,,---,0.11,VWS V14.01,2013-02-13 00:59:00,
2013-02-12 19:04:00,69.5,69.2,29.68,South,191,1.0,2.0,99,0.00,,---,0.11,VWS V14.01,2013-02-13 01:04:00,
2013-02-12 19:09:00,69.5,69.2,29.68,WSW,257,0.0,4.0,99,0.00,,---,0.11,VWS V14.01,2013-02-13 01:09:00,
2013-02-12 19:14:00,69.5,69.2,29.68,SW,236,0.0,4.0,99,0.00,,---,0.11,VWS V14.01,2013-02-13 01:14:00,
2013-02-12 19:19:00,69.5,69.2,29.68,SW,217,0.0,4.0,99,0.00,,---,0.11,VWS V14.01,2013-02-13 01:19:00,
2013-02-12 19:24:00,69.5,69.2,29.69,WSW,248,0.0,4.0,99,0.00,,---,0.11,VWS V14.01,2013-02-13 01:24:00,
2013-02-12 19:29:00,69.6,69.3,29.69,WSW,246,1.0,4.0,99,0.00,,---,0.11,VWS V14.01,2013-02-13 01:29:00,
2013-02-12 19:34:00,69.6,69.3,29.69,South,176,1.0,3.0,99,0.00,,---,0.11,VWS V14.01,2013-02-13 01:34:00,
2013-02-12 19:39:00,69.6,69.3,29.69,WSW,246,1.0,4.0,99,0.00,,---,0.11,VWS V14.01,2013-02-13 01:39:00,
2013-02-12 19:44:00,69.5,69.2,29.70,SSW,204,1.0,4.0,99,0.00,,---,0.11,VWS V14.01,2013-02-13 01:44:00,
2013-02-12 19:49:00,69.5,69.2,29.70,SW,231,2.0,5.0,99,0.00,,---,0.11,VWS V14.01,2013-02-13 01:49:00,
2013-02-12 19:54:00,69.5,69.2,29.70,SSW,195,1.0,5.0,99,0.00,,---,0.11,VWS V14.01,2013-02-13 01:54:00,
2013-02-12 19:59:00,69.5,69.2,29.70,SSW,207,0.0,5.0,99,0.00,,---,0.11,VWS V14.01,2013-02-13 01:59:00,
2013-02-12 20:04:00,69.5,69.2,29.70,SW,214,0.0,1.0,99,0.00,,---,0.11,VWS V14.01,2013-02-13 02:04:00,
2013-02-12 20:09:00,69.5,69.2,29.69,SW,224,0.0,2.0,99,0.00,,---,0.11,VWS V14.01,2013-02-13 02:09:00,
2013-02-12 20:14:00,69.5,69.2,29.70,SW,215,1.0,2.0,99,0.00,,---,0.11,VWS V14.01,2013-02-13 02:14:00,
2013-02-12 20:19:00,69.4,69.1,29.70,South,179,2.0,2.0,99,0.00,,---,0.11,VWS V14.01,2013-02-13 02:19:00,
2013-02-12 20:24:00,69.4,69.1,29.70,SW,235,0.0,2.0,99,0.00,,---,0.11,VWS V14.01,2013-02-13 02:24:00,
2013-02-12 20:29:00,69.4,69.1,29.70,SSW,212,0.0,2.0,99,0.00,,---,0.11,VWS V14.01,2013-02-13 02:29:00,
2013-02-12 20:34:00,69.4,69.1,29.70,WSW,238,0.0,0.0,99,0.00,,---,0.11,VWS V14.01,2013-02-13 02:34:00,
2013-02-12 20:39:00,69.3,69.0,29.69,SSW,207,1.0,1.0,99,0.00,,---,0.11,VWS V14.01,2013-02-13 02:39:00,
2013-02-12 20:44:00,69.2,68.9,29.69,SSW,203,0.0,1.0,99,0.00,,---,0.11,VWS V14.01,2013-02-13 02:44:00,
2013-02-12 20:49:00,69.0,68.7,29.69,SSW,204,0.0,1.0,99,0.00,,---,0.11,VWS V14.01,2013-02-13 02:49:00,
2013-02-12 20:54:00,68.9,68.6,29.69,SSW,204,0.0,1.0,99,0.00,,---,0.11,VWS V14.01,2013-02-13 02:54:00,
2013-02-12 20:59:00,69.0,68.7,29.69,SSW,209,0.0,1.0,99,0.00,,---,0.11,VWS V14.01,2013-02-13 02:59:00,
2013-02-12 21:04:00,69.0,68.7,29.69,SSW,210,0.0,0.0,99,0.00,,---,0.11,VWS V14.01,2013-02-13 03:04:00,
2013-02-12 21:09:00,69.0,68.7,29.69,SSW,210,0.0,1.0,99,0.00,,---,0.11,VWS V14.01,2013-02-13 03:09:00,
2013-02-12 21:14:00,68.8,68.5,29.68,SSW,210,1.0,1.0,99,0.00,,---,0.11,VWS V14.01,2013-02-13 03:14:00,
2013-02-12 21:19:00,68.7,68.4,29.69,SSW,205,0.0,2.0,99,0.00,,---,0.11,VWS V14.01,2013-02-13 03:19:00,
2013-02-12 21:24:00,68.6,68.3,29.69,SSW,207,0.0,2.0,99,0.00,,---,0.11,VWS V14.01,2013-02-13 03:24:00,
2013-02-12 21:29:00,68.4,68.1,29.69,SSW,212,0.0,2.0,99,0.00,,---,0.11,VWS V14.01,2013-02-13 03:29:00,
2013-02-12 21:34:00,68.3,68.0,29.69,SSW,210,0.0,0.0,99,0.00,,---,0.11,VWS V14.01,2013-02-13 03:34:00,
2013-02-12 21:39:00,68.0,67.7,29.69,SSW,210,0.0,0.0,99,0.00,,---,0.11,VWS V14.01,2013-02-13 03:39:00,
2013-02-12 21:44:00,67.9,67.6,29.69,SSW,210,0.0,0.0,99,0.00,,---,0.11,VWS V14.01,2013-02-13 03:44:00,
2013-02-12 21:49:00,67.9,67.6,29.70,SSW,210,0.0,1.0,99,0.00,,---,0.11,VWS V14.01,2013-02-13 03:49:00,
2013-02-12 21:54:00,67.9,67.6,29.70,SSW,210,0.0,1.0,99,0.00,,---,0.11,VWS V14.01,2013-02-13 03:54:00,
2013-02-12 21:59:00,67.9,67.6,29.70,SSW,210,0.0,1.0,99,0.00,,---,0.11,VWS V14.01,2013-02-13 03:59:00,
2013-02-12 22:04:00,67.9,67.6,29.70,SSW,204,0.0,0.0,99,0.00,,---,0.11,VWS V14.01,2013-02-13 04:04:00,
2013-02-12 22:09:00,68.0,67.7,29.70,SSW,211,0.0,1.0,99,0.00,,---,0.11,VWS V14.01,2013-02-13 04:09:00,
2013-02-12 22:14:00,67.9,67.6,29.71,SSW,211,0.0,1.0,99,0.00,,---,0.11,VWS V14.01,2013-02-13 04:14:00,
2013-02-12 22:19:00,68.0,67.7,29.71,SSW,211,0.0,1.0,99,0.00,,---,0.11,VWS V14.01,2013-02-13 04:19:00,
2013-02-12 22:24:00,68.0,67.7,29.72,SSW,211,0.0,1.0,99,0.00,,---,0.11,VWS V14.01,2013-02-13 04:24:00,
2013-02-12 22:29:00,68.1,67.8,29.72,SSW,207,0.0,1.0,99,0.00,,---,0.11,VWS V14.01,2013-02-13 04:29:00,
2013-02-12 22:34:00,68.0,67.7,29.71,SSW,207,0.0,0.0,99,0.00,,---,0.11,VWS V14.01,2013-02-13 04:34:00,
2013-02-12 22:39:00,68.1,67.8,29.71,SSW,207,0.0,0.0,99,0.00,,---,0.11,VWS V14.01,2013-02-13 04:39:00,
2013-02-12 22:44:00,68.2,67.9,29.71,SW,235,0.0,2.0,99,0.00,,---,0.11,VWS V14.01,2013-02-13 04:44:00,
2013-02-12 22:49:00,68.2,67.9,29.71,SW,214,0.0,2.0,99,0.00,,---,0.11,VWS V14.01,2013-02-13 04:49:00,
2013-02-12 22:54:00,68.3,68.0,29.71,SW,224,0.0,2.0,99,0.00,,---,0.11,VWS V14.01,2013-02-13 04:54:00,
2013-02-12 22:59:00,68.2,67.9,29.71,WSW,255,0.0,2.0,99,0.00,,---,0.11,VWS V14.01,2013-02-13 04:59:00,
2013-02-12 23:00:00,68.2,67.9,29.71,WSW,255,0.0,2.0,99,0.00,,---,0.11,VWS V14.01,2013-02-13 05:00:00,
2013-02-12 23:05:00,68.2,67.9,29.72,NE,46,0.0,0.0,99,0.00,,---,0.11,VWS V14.01,2013-02-13 05:05:00,
2013-02-12 23:10:00,68.2,67.9,29.71,SW,222,0.0,1.0,99,0.00,,---,0.11,VWS V14.01,2013-02-13 05:10:00,
2013-02-12 23:15:00,68.1,67.8,29.71,SSW,197,0.0,1.0,99,0.00,,---,0.11,VWS V14.01,2013-02-13 05:15:00,
2013-02-12 23:20:00,67.9,67.6,29.71,SSW,198,0.0,1.0,99,0.00,,---,0.11,VWS V14.01,2013-02-13 05:20:00,
2013-02-12 23:25:00,67.8,67.5,29.70,South,177,0.0,1.0,99,0.00,,---,0.11,VWS V14.01,2013-02-13 05:25:00,
2013-02-12 23:30:00,67.8,67.5,29.70,South,177,0.0,1.0,99,0.00,,---,0.11,VWS V14.01,2013-02-13 05:30:00,
2013-02-12 23:35:00,67.7,67.4,29.70,South,178,0.0,0.0,99,0.00,,---,0.11,VWS V14.01,2013-02-13 05:35:00,
2013-02-12 23:40:00,67.5,67.2,29.70,South,177,0.0,0.0,99,0.00,,---,0.11,VWS V14.01,2013-02-13 05:40:00,
2013-02-12 23:45:00,67.5,67.2,29.70,South,174,0.0,0.0,99,0.00,,---,0.11,VWS V14.01,2013-02-13 05:45:00,
2013-02-12 23:50:00,67.3,67.0,29.70,South,174,0.0,0.0,99,0.00,,---,0.11,VWS V14.01,2013-02-13 05:50:00,
2013-02-12 23:55:00,67.0,66.7,29.70,South,174,0.0,0.0,99,0.00,,---,0.11,VWS V14.01,2013-02-13 05:55:00,